SCP
0 0 -0 0 0 0 0 0 0 0 0 0 0 0 0 0 0 0 0 -0 -0 -0 -0 -0 -0 -0 -0 -0 -0 -0 -0 -0 -0 -0 -0 -0 -0 -0 -0 0 0 0 0 0 0 0 0 0 0
0 0 0 0 0 0 0 0 0 0 0 0 0 0 0 0 0 0 0 0 0 0 0 -0 -0 -0 -0 -0 -0 -0 -0 -0 -0 -0 -0 -0 -0 -0 -0 -0 0 0 0 0 0 0 0 0 0
0 0 0 0 0 0 0 0 0 0 0 0 0 0 0 0 0 0 0 0 0 0 0 0 -0 -0 -0 -0 -0 -0 -0 -0 -0 -0 -0 -0 -0 -0 -0 -0 -0 0 0 0 0 0 0 0 0
0 0 0 0 0 0 0 0 0 0 0 0 0 0 0 0 0 0 0 0 0 0 0 0 -0 -0 -0 -0 -0 -0 -0 -0 -0 -0 -0 -0 -0 -0 -0 -0 -0 0 0 0 0 0 0 0 0
0 0 0 0 0 0 0 0 0 0 0 0 0 0 0 0 0 0 0 0 0 0 0 0 0 0 0 -0 0 0 0 0 -0 -0 0 0 0 0 0 0 0 0 0 0 0 0 0 0 0
0 0 0 0 0 0 0 0 0 0 0 0 0 0 0 0 0 0 0 0 0 0 0 0 0 0 0 0 0 0 0 0 0 0 0 0 0 0 0 0 0 0 0 0 0 0 0 0 0
0 0 0 0 0 0 0 0 0 0 0 0 0 0 0 0 0 0 0 0 0 0 0 0 0 0 0 0 0 0 0 0 0 0 0 0 0 0 0 0 0 0 0 0 0 0 0 0 0
0 0 0 0 0 0 0 0 0 0 0 0 0 0 0 0 0 0 0 0 0 0 0 0 0 0 0 0 0 0 0 0 0 0 0 0 0 0 0 0 0 0 0 0 0 0 0 0 0
0 0 0 0 0 0 0 0 0 0 0 0 0 0 0 0 0 0 0 0 0 0 0 0 0 0 0 0 0 0 0 0 0 0 0 0 0 0 0 0 0 0 0 0 0 0 0 0 0
0 0 0 0 0 0 0 0 0 0 0 0 0 0 0 0 0 0 0 0 0 0 0 0 0 0 0 0 0 0 0 0 0 0 0 0 0 0 0 0 0 0 0 0 0 0 0 0 0
0 0 0 0 0 0 0 0 0 0 0 0 0 0 0 0 0 0 0 0 0 0 0 0 0 0 0 0 0 0 0 0 0 0 0 0 0 0 0 0 0 0 0 0 0 0 0 0 0
0 0 0 0 0 0 0 0 0 0 0 0 0 0 0 0 0 0 0 0 0 0 0 0 0 0 0 0 0 0 0 0 0 0 0 0 0 0 0 0 0 0 0 0 0 0 0 0 0
0 0 0 0 0 0 0 0 0 0 0 0 0 0 0 0 0 0 0 0 0 0 0 0 0 0 0 0 0 0 0 0 0 0 0 0 0 0 0 0 0 0 0 0 0 0 0 0 0
0 0 0 0 0 0 0 0 0 0 0 0 0 0 0 0 0 0 0 0 0 0 0 0 0 0 0 0 0 0 0 0 0 0 0 0 0 0 -0 0 0 -0 -0 -0 0 0 0 0 0
0 0 0 0 0 0 0 0 0 0 0 0 0 0 0 0 0 0 0 0 0 0 0 0 0 0 0 0 0 0 0 0 0 0 0 0 0 0 -0 0 0 -0 -0 -0 -0 -0 -0 -0 -0
0 0 0 0 0 0 0 0 0 0 0 0 0 0 0 0 0 0 0 0 0 0 0 0 0 0 0 0 0 0 0 0 0 0 0 0 0 0 0 0 0 -0 -0 -0 -0 -0 -0 -0 -0
0 0 0 0 0 0 0 0 0 0 0 0 0 0 0 0 0 0 0 0 0 0 0 0 0 0 0 0 0 0 0 0 0 0 0 0 0 0 0 0 0 0 -0 -0 -0 -0 -0 -0 -0
0 0 0 0 0 0 0 0 0 0 0 0 0 0 0 0 0 0 0 0 0 0 0 0 0 0 0 0 0 0 0 0 0 0 0 0 0 0 0 0 0 0 -0 -0 -0 -0 -0 -0 -0
0 0 0 0 0 0 0 0 0 0 0 0 0 0 0 0 0 0 0 0 0 0 0 0 0 0 0 0 0 0 0 0 0 0 0 0 0 0 0 0 0 0 0 0 0 -0 -0 -0 -0
0 0 0 0 0 0 0 0 0 0 0 0 0 0 0 0 0 0 0 0 0 0 0 0 0 0 0 0 0 0 0 0 0 0 0 0 -0 0 0 0 0 0 0 0 0 0 -0 -0 -0
0 0 0 0 0 0 0 0 0 0 0 0 0 0 0 0 0 0 0 0 0 0 0 0 0 0 0 0 0 0 0 0 0 0 0 0 0 0 0 0 0 0 0 0 0 0 0 0 0
0 0 0 0 0 0 0 -0 0 0 0 0 0 0 0 0 0 0 0 0 0 0 0 0 0 0 0 0 0 0 0 0 0 0 0 0 0 0 0 0 0 0 0 0 0 0 0 0 0
0 0 0 0 0 0 0 0 0 0 0 0 0 0 0 0 0 0 0 0 0 0 0 0 0 0 0 0 0 0 0 0 0 0 0 0 0 0 0 0 0 0 0 0 0 0 0 0 0
0 0 0 0 0 0 0 0 0 0 0 0 0 0 0 0 0 0 0 0 0 0 0 0 0 0 0 0 0 0 0 0 0 0 0 0 0 0 0 0 0 0 0 0 0 0 0 0 0
0 0 0 0 0 0 0 0 0 0 0 0 0 0 0 0 0 0 0 0 0 0 0 0 0 0 0 0 0 0 0 0 0 0 0 0 0 0 0 0 0 0 0 0 0 0 0 0 0
0 0 0 0 0 0 0 0 0 0 0 0 0 0 0 0 0 0 0 0 0 0 0 0 0 0 0 0 0 0 0 0 0 0 0 0 0 0 0 0 0 0 0 0 0 0 0 0 0
0 0 0 0 0 0 0 0 0 0 0 0 0 0 0 0 0 0 0 0 0 0 0 0 0 0 0 0 0 0 0 0 0 0 0 0 0 0 0 0 0 0 0 0 0 0 0 0 0
0 0 0 0 0 0 0 0 0 0 0 0 0 0 0 0 0 0 0 0 0 0 0 0 0 0 0 0 0 0 0 0 0 0 0 0 0 0 0 0 0 0 0 0 0 0 0 0 0
0 0 0 0 0 0 0 0 0 0 0 0 0 0 0 0 0 0 0 0 0 0 0 0 0 0 0 0 0 0 0 0 0 0 0 0 0 0 0 0 0 0 0 0 0 0 0 0 0
0 0 0 0 0 0 0 0 0 0 0 0 0 0 0 0 0 0 0 0 0 0 0 0 0 0 0 0 0 0 0 0 0 0 0 0 0 0 0 0 0 0 0 0 0 0 0 0 0
Wind_Speed_500mb
12 10 6 2 6 8 2 6 1 7 6 4 10 9 10 10 5 5 18 6 3 5 10 10 9 10 11 12 11 13 10 10 11 11 11 12 13 13 17 20 22 22 22 23 22 21 22 24 26
8 7 3 5 8 5 5 4 9 9 18 35 28 18 5 4 11 11 19 7 4 5 12 12 9 11 10 12 16 18 19 19 21 22 20 19 19 20 20 19 20 24 27 28 28 28 28 25 25
8 5 3 8 6 7 8 8 10 10 41 11 10 6 13 13 19 19 20 12 7 7 8 9 11 10 8 8 11 14 19 23 25 26 26 26 26 26 27 29 31 30 29 28 29 31 31 32 31
4 3 8 7 6 5 5 9 14 28 12 13 14 8 11 19 25 23 22 13 8 4 4 2 5 8 7 4 5 7 10 13 16 19 24 30 34 36 36 35 34 35 36 38 37 33 34 34 36
7 3 7 5 4 5 7 17 49 16 11 14 23 11 10 24 25 27 22 18 12 8 5 1 4 6 7 6 6 6 6 7 9 10 13 17 23 31 38 42 45 45 45 44 44 43 43 39 41
5 5 7 4 6 5 6 19 21 18 12 17 12 20 13 27 34 31 26 19 13 9 7 4 2 4 7 8 8 10 12 14 16 19 21 24 27 30 32 34 40 47 51 51 51 51 49 48 49
10 7 6 4 5 4 10 23 16 21 21 17 12 16 11 41 41 34 28 23 21 18 12 8 6 7 6 7 8 10 13 15 19 21 23 26 30 34 37 40 44 44 46 51 54 54 54 55 57
8 10 6 6 7 9 15 18 11 20 12 15 25 13 11 49 49 41 36 32 27 22 17 13 11 9 7 7 8 8 8 11 14 16 20 22 26 30 33 37 41 45 49 51 51 55 59 60 61
7 8 3 7 10 6 17 7 13 10 11 26 27 21 13 39 53 49 44 37 33 27 22 19 16 12 8 6 4 4 6 10 13 15 19 22 25 30 35 37 39 40 41 43 48 53 54 57 62
6 7 11 9 8 5 12 12 19 10 15 22 34 39 29 37 55 56 52 45 38 31 26 21 18 14 11 7 5 8 12 15 18 21 24 25 28 32 35 38 43 46 45 45 45 47 53 58 60
4 9 8 6 12 7 8 8 16 15 10 37 43 50 41 49 58 57 50 44 37 35 30 27 22 17 13 11 9 9 12 17 20 23 27 30 33 36 40 43 44 44 46 47 48 47 47 50 58
1 3 7 5 8 6 8 9 11 36 37 25 26 33 46 57 63 64 60 54 47 41 37 30 24 20 18 14 11 11 13 16 20 25 29 32 34 38 43 47 49 51 52 52 53 56 58 53 53
4 4 7 11 15 13 13 23 17 38 40 48 38 33 46 59 62 60 54 52 51 47 41 33 27 24 19 15 11 10 13 18 23 28 34 38 42 45 48 52 54 55 56 57 54 56 59 64 65
5 8 13 11 14 12 9 8 3 16 12 35 47 48 53 62 65 63 66 62 58 52 44 36 32 25 19 14 11 12 15 20 26 32 38 43 46 49 52 56 62 63 63 63 64 65 65 66 68
2 7 10 10 7 8 10 16 20 45 33 34 40 48 55 64 67 73 67 63 59 51 44 38 31 23 18 13 14 15 18 22 27 32 36 41 44 47 51 57 63 67 68 69 69 71 74 76 74
4 7 3 5 9 4 12 19 17 25 32 44 46 52 59 67 73 72 66 62 59 52 45 38 32 25 19 18 17 14 16 21 26 32 38 43 48 51 52 55 61 66 68 70 73 76 79 80 86
10 7 8 14 21 5 12 20 12 19 29 47 53 60 65 69 76 77 73 70 66 56 50 44 37 29 25 23 18 16 16 21 28 35 39 43 47 50 52 58 61 65 69 71 74 77 81 86 87
12 8 10 13 9 8 9 34 35 41 48 72 71 71 71 78 88 82 82 77 69 61 55 49 41 34 30 26 21 18 17 23 29 35 39 42 44 49 55 61 65 69 72 75 77 80 81 85 90
6 9 15 9 8 9 18 34 39 61 44 56 70 69 75 84 81 83 83 80 74 68 64 55 46 39 34 29 24 19 18 23 30 36 39 42 46 51 60 66 69 71 73 75 77 82 87 87 85
6 6 14 14 3 13 17 35 31 35 52 54 65 62 74 70 74 79 89 89 87 80 69 61 51 44 37 31 26 23 21 27 34 37 40 46 51 54 62 66 68 70 75 78 80 81 88 91 85
9 13 10 16 9 8 13 18 14 15 30 61 64 68 62 64 65 70 83 98 95 88 78 66 55 46 38 32 28 27 27 31 36 40 43 46 51 53 60 62 65 68 73 78 80 82 84 90 92
10 12 6 5 5 8 5 29 9 13 21 18 46 50 59 59 56 60 68 92 103 96 80 67 57 50 42 35 30 28 31 37 42 47 50 51 52 56 61 65 67 69 72 74 78 83 87 88 95
13 6 8 3 6 6 8 10 8 6 15 36 19 42 44 45 45 50 59 69 96 97 86 71 61 54 46 37 32 32 34 41 46 49 54 55 58 62 63 66 68 69 72 74 78 83 88 89 93
11 7 8 7 4 4 17 19 10 12 18 16 23 49 35 30 31 40 48 55 76 96 85 75 67 59 51 40 36 35 37 43 48 52 57 59 65 67 65 65 67 69 72 77 81 86 90 91 95
6 10 9 9 4 18 11 8 26 12 21 24 28 44 31 29 34 38 46 55 68 86 95 84 73 65 55 45 40 36 40 45 50 52 57 61 68 68 67 68 69 71 74 79 84 90 94 94 92
12 17 12 18 10 39 7 18 19 32 45 41 45 55 46 35 33 38 42 51 61 74 98 89 77 66 57 49 40 37 41 45 48 51 57 63 68 70 70 70 73 76 80 83 89 95 99 97 94
10 11 6 5 4 9 12 27 13 12 24 10 44 45 46 40 38 38 42 52 60 70 98 92 76 66 60 49 40 38 41 44 48 50 55 63 65 69 71 72 76 81 84 89 93 99 100 95 87
10 9 7 3 7 14 34 57 35 22 30 21 23 47 61 42 34 37 46 49 58 68 91 86 75 68 58 46 40 39 40 43 47 50 55 61 65 69 73 75 79 84 87 91 93 100 98 88 87
6 6 2 3 9 11 26 31 10 15 19 24 25 43 36 31 33 40 43 47 57 67 91 88 77 68 54 45 39 38 39 41 45 50 56 63 69 71 75 80 85 87 91 93 96 95 95 85 79
5 18 20 11 14 8 5 59 6 2 18 14 23 22 27 32 35 41 49 52 60 77 95 90 77 66 52 41 36 36 37 40 44 50 56 62 70 74 77 82 86 90 94 97 95 95 90 78 80
Wind_Direction_500mb
147 148 125 150 65 65 120 217 166 154 162 188 160 183 155 96 143 172 148 150 281 304 305 294 289 280 265 257 248 249 248 237 234 234 230 236 257 270 282 287 286 289 290 292 293 294 295 301 300
143 161 157 118 87 78 259 226 201 190 136 118 110 110 98 132 145 163 176 188 231 279 289 295 301 290 274 259 254 257 260 258 260 262 265 273 270 266 262 262 268 279 287 287 286 285 284 291 295
143 155 198 97 118 162 188 198 177 144 149 153 129 142 156 158 162 166 185 198 216 257 285 308 318 319 309 287 276 266 259 261 266 270 271 275 280 281 278 278 281 279 278 279 284 287 289 286 285
165 144 59 82 164 215 201 170 157 142 196 190 168 138 164 174 169 176 178 183 197 173 115 114 67 44 37 359 314 295 290 284 283 283 283 281 282 283 283 283 281 280 280 279 276 275 274 274 278
162 93 59 91 218 230 235 179 165 167 175 172 172 184 184 180 182 179 178 178 172 149 141 56 4 13 7 2 2 356 351 342 329 317 307 301 293 287 285 283 282 281 279 276 275 276 274 270 270
102 80 63 235 233 239 248 178 171 181 174 170 185 156 187 188 186 183 183 180 177 189 201 214 276 318 310 314 319 325 337 341 339 333 327 319 312 307 302 298 289 282 278 276 278 279 274 271 272
127 91 202 200 231 219 214 168 182 178 173 210 187 155 212 188 187 189 187 191 202 210 219 233 253 269 277 294 315 331 335 335 334 331 328 323 317 312 306 300 295 294 293 288 282 276 274 274 270
121 90 124 232 207 253 177 168 189 179 196 190 188 202 221 196 190 191 194 199 207 215 220 227 235 242 258 281 293 312 326 332 339 337 333 326 321 316 310 305 299 294 290 287 286 283 278 273 270
126 70 210 234 159 245 170 158 181 206 181 191 204 215 217 188 194 196 202 205 211 216 222 225 223 224 231 247 266 316 347 357 354 346 343 340 335 328 322 317 312 309 302 295 287 282 280 278 273
101 114 217 195 207 254 191 195 188 187 205 226 230 230 221 199 202 204 205 208 212 217 220 224 228 233 240 260 315 342 351 354 355 355 351 347 344 340 336 329 322 317 313 309 301 295 286 279 279
159 166 208 230 234 256 181 222 192 191 230 230 232 233 219 206 206 206 208 214 218 220 222 227 229 234 243 258 281 317 339 351 353 352 349 348 343 339 337 333 328 325 321 315 311 306 300 295 287
167 191 211 267 212 191 201 196 220 218 242 259 257 252 224 208 207 207 209 213 218 219 222 225 231 239 247 256 279 311 335 343 346 344 345 343 340 338 336 335 333 330 327 324 321 316 313 308 300
165 238 226 259 245 240 245 241 240 253 260 254 253 240 225 214 214 212 215 217 217 218 224 228 232 235 241 249 270 298 323 336 342 343 342 340 339 339 339 336 332 331 330 328 326 323 318 314 309
186 264 272 270 246 247 235 273 251 247 239 244 242 241 227 220 216 211 213 216 220 222 223 225 228 227 233 248 271 298 324 337 340 341 340 338 336 335 334 333 330 328 327 328 327 325 322 318 314
157 316 319 231 226 239 206 286 230 256 256 252 241 236 229 223 218 222 224 224 224 223 223 225 228 231 243 269 293 311 323 333 338 336 331 329 329 331 333 330 326 325 326 326 324 324 322 319 315
82 61 38 211 166 221 158 266 266 252 242 249 245 238 229 225 223 225 225 226 224 223 225 229 231 237 250 259 268 289 311 325 331 331 331 330 330 329 329 327 323 322 322 323 323 323 321 320 319
1 249 223 300 202 143 181 272 239 245 241 254 251 244 233 227 226 227 226 226 226 226 228 230 232 237 243 246 256 275 300 323 331 332 331 328 326 322 327 325 323 321 321 323 323 322 320 318 316
225 245 251 240 221 208 210 256 271 258 260 262 262 254 239 234 235 230 226 225 225 225 226 229 232 236 239 241 250 266 301 325 332 330 325 321 318 323 328 322 321 321 322 322 321 318 317 316 316
163 197 237 246 231 206 232 249 258 272 249 254 256 249 250 246 245 235 230 227 224 224 225 228 231 234 237 239 248 267 296 319 326 328 321 317 323 328 323 319 318 318 317 317 318 317 317 315 315
166 213 259 284 262 198 272 262 259 255 259 256 256 249 258 257 247 240 231 227 226 226 224 225 228 233 235 239 250 269 296 312 323 322 318 321 323 324 317 315 316 317 317 318 318 317 315 313 316
205 195 226 234 338 254 313 268 236 274 249 264 256 259 260 254 249 243 231 226 224 223 223 224 228 230 234 240 255 275 295 307 315 317 320 321 317 317 314 315 316 317 317 317 316 315 313 310 307
236 208 205 289 36 251 0 296 243 245 269 256 266 251 253 250 247 246 238 229 225 224 221 224 226 229 233 242 257 276 294 306 316 318 319 315 318 321 319 318 317 315 312 312 312 312 309 307 305
226 120 138 147 212 26 255 270 233 14 265 263 265 261 255 250 249 249 247 239 231 224 220 221 225 227 233 246 261 277 293 306 313 314 312 316 322 318 317 316 314 312 310 309 309 307 305 302 301
137 98 68 65 105 243 224 202 165 182 212 256 267 260 256 246 255 256 253 243 235 224 219 221 223 228 233 246 264 279 294 301 308 312 316 320 318 318 318 315 312 311 310 309 308 306 303 301 299
94 67 321 312 329 253 140 211 259 229 232 221 237 254 245 264 263 252 243 237 233 224 217 219 222 226 232 243 258 276 290 300 306 313 314 318 316 317 318 314 312 312 311 310 309 306 304 301 296
170 168 168 250 263 290 141 245 274 223 241 240 245 258 263 252 251 249 246 246 237 224 218 220 221 224 232 243 258 275 288 298 306 310 314 316 316 317 316 316 316 316 314 312 309 307 306 302 296
180 187 167 92 121 296 242 263 288 222 258 260 251 248 244 249 252 252 249 247 237 226 218 220 220 225 232 243 259 275 287 298 303 309 314 313 314 315 318 319 317 316 314 313 311 308 305 299 292
183 162 92 357 256 260 270 276 270 216 236 239 246 243 244 249 242 247 249 248 238 229 218 219 222 227 233 245 260 274 287 295 304 311 313 313 316 319 319 319 317 315 314 313 310 307 303 294 289
136 211 224 187 158 205 276 283 183 186 201 217 235 256 237 228 250 245 252 255 239 226 217 218 221 225 233 247 263 278 290 301 308 314 316 317 317 318 318 316 314 315 315 313 309 306 301 294 288
179 193 174 193 238 238 137 271 347 61 214 217 235 215 227 245 251 246 263 251 232 218 217 217 219 224 232 246 264 280 292 301 308 312 314 316 318 318 317 316 315 316 314 313 310 307 301 294 290
Wind_Speed_850mb
12 10 6 2 6 8 2 6 1 7 6 4 10 9 10 10 5 5 18 6 3 5 10 10 9 10 11 12 11 13 10 10 11 11 11 12 13 13 17 20 22 22 22 23 22 21 22 24 26
8 7 3 5 8 5 5 4 9 9 18 35 28 18 5 4 11 11 19 7 4 5 12 12 9 11 10 12 16 18 19 19 21 22 20 19 19 20 20 19 20 24 27 28 28 28 28 25 25
8 5 3 8 6 7 8 8 10 10 41 11 10 6 13 13 19 19 20 12 7 7 8 9 11 10 8 8 11 14 19 23 25 26 26 26 26 26 27 29 31 30 29 28 29 31 31 32 31
4 3 8 7 6 5 5 9 14 28 12 13 14 8 11 19 25 23 22 13 8 4 4 2 5 8 7 4 5 7 10 13 16 19 24 30 34 36 36 35 34 35 36 38 37 33 34 34 36
7 3 7 5 4 5 7 17 49 16 11 14 23 11 10 24 25 27 22 18 12 8 5 1 4 6 7 6 6 6 6 7 9 10 13 17 23 31 38 42 45 45 45 44 44 43 43 39 41
5 5 7 4 6 5 6 19 21 18 12 17 12 20 13 27 34 31 26 19 13 9 7 4 2 4 7 8 8 10 12 14 16 19 21 24 27 30 32 34 40 47 51 51 51 51 49 48 49
10 7 6 4 5 4 10 23 16 21 21 17 12 16 11 41 41 34 28 23 21 18 12 8 6 7 6 7 8 10 13 15 19 21 23 26 30 34 37 40 44 44 46 51 54 54 54 55 57
8 10 6 6 7 9 15 18 11 20 12 15 25 13 11 49 49 41 36 32 27 22 17 13 11 9 7 7 8 8 8 11 14 16 20 22 26 30 33 37 41 45 49 51 51 55 59 60 61
7 8 3 7 10 6 17 7 13 10 11 26 27 21 13 39 53 49 44 37 33 27 22 19 16 12 8 6 4 4 6 10 13 15 19 22 25 30 35 37 39 40 41 43 48 53 54 57 62
6 7 11 9 8 5 12 12 19 10 15 22 34 39 29 37 55 56 52 45 38 31 26 21 18 14 11 7 5 8 12 15 18 21 24 25 28 32 35 38 43 46 45 45 45 47 53 58 60
4 9 8 6 12 7 8 8 16 15 10 37 43 50 41 49 58 57 50 44 37 35 30 27 22 17 13 11 9 9 12 17 20 23 27 30 33 36 40 43 44 44 46 47 48 47 47 50 58
1 3 7 5 8 6 8 9 11 36 37 25 26 33 46 57 63 64 60 54 47 41 37 30 24 20 18 14 11 11 13 16 20 25 29 32 34 38 43 47 49 51 52 52 53 56 58 53 53
4 4 7 11 15 13 13 23 17 38 40 48 38 33 46 59 62 60 54 52 51 47 41 33 27 24 19 15 11 10 13 18 23 28 34 38 42 45 48 52 54 55 56 57 54 56 59 64 65
5 8 13 11 14 12 9 8 3 16 12 35 47 48 53 62 65 63 66 62 58 52 44 36 32 25 19 14 11 12 15 20 26 32 38 43 46 49 52 56 62 63 63 63 64 65 65 66 68
2 7 10 10 7 8 10 16 20 45 33 34 40 48 55 64 67 73 67 63 59 51 44 38 31 23 18 13 14 15 18 22 27 32 36 41 44 47 51 57 63 67 68 69 69 71 74 76 74
4 7 3 5 9 4 12 19 17 25 32 44 46 52 59 67 73 72 66 62 59 52 45 38 32 25 19 18 17 14 16 21 26 32 38 43 48 51 52 55 61 66 68 70 73 76 79 80 86
10 7 8 14 21 5 12 20 12 19 29 47 53 60 65 69 76 77 73 70 66 56 50 44 37 29 25 23 18 16 16 21 28 35 39 43 47 50 52 58 61 65 69 71 74 77 81 86 87
12 8 10 13 9 8 9 34 35 41 48 72 71 71 71 78 88 82 82 77 69 61 55 49 41 34 30 26 21 18 17 23 29 35 39 42 44 49 55 61 65 69 72 75 77 80 81 85 90
6 9 15 9 8 9 18 34 39 61 44 56 70 69 75 84 81 83 83 80 74 68 64 55 46 39 34 29 24 19 18 23 30 36 39 42 46 51 60 66 69 71 73 75 77 82 87 87 85
6 6 14 14 3 13 17 35 31 35 52 54 65 62 74 70 74 79 89 89 87 80 69 61 51 44 37 31 26 23 21 27 34 37 40 46 51 54 62 66 68 70 75 78 80 81 88 91 85
9 13 10 16 9 8 13 18 14 15 30 61 64 68 62 64 65 70 83 98 95 88 78 66 55 46 38 32 28 27 27 31 36 40 43 46 51 53 60 62 65 68 73 78 80 82 84 90 92
10 12 6 5 5 8 5 29 9 13 21 18 46 50 59 59 56 60 68 92 103 96 80 67 57 50 42 35 30 28 31 37 42 47 50 51 52 56 61 65 67 69 72 74 78 83 87 88 95
13 6 8 3 6 6 8 10 8 6 15 36 19 42 44 45 45 50 59 69 96 97 86 71 61 54 46 37 32 32 34 41 46 49 54 55 58 62 63 66 68 69 72 74 78 83 88 89 93
11 7 8 7 4 4 17 19 10 12 18 16 23 49 35 30 31 40 48 55 76 96 85 75 67 59 51 40 36 35 37 43 48 52 57 59 65 67 65 65 67 69 72 77 81 86 90 91 95
6 10 9 9 4 18 11 8 26 12 21 24 28 44 31 29 34 38 46 55 68 86 95 84 73 65 55 45 40 36 40 45 50 52 57 61 68 68 67 68 69 71 74 79 84 90 94 94 92
12 17 12 18 10 39 7 18 19 32 45 41 45 55 46 35 33 38 42 51 61 74 98 89 77 66 57 49 40 37 41 45 48 51 57 63 68 70 70 70 73 76 80 83 89 95 99 97 94
10 11 6 5 4 9 12 27 13 12 24 10 44 45 46 40 38 38 42 52 60 70 98 92 76 66 60 49 40 38 41 44 48 50 55 63 65 69 71 72 76 81 84 89 93 99 100 95 87
10 9 7 3 7 14 34 57 35 22 30 21 23 47 61 42 34 37 46 49 58 68 91 86 75 68 58 46 40 39 40 43 47 50 55 61 65 69 73 75 79 84 87 91 93 100 98 88 87
6 6 2 3 9 11 26 31 10 15 19 24 25 43 36 31 33 40 43 47 57 67 91 88 77 68 54 45 39 38 39 41 45 50 56 63 69 71 75 80 85 87 91 93 96 95 95 85 79
5 18 20 11 14 8 5 59 6 2 18 14 23 22 27 32 35 41 49 52 60 77 95 90 77 66 52 41 36 36 37 40 44 50 56 62 70 74 77 82 86 90 94 97 95 95 90 78 80
Wind_Direction_850mb
147 148 125 150 65 65 120 217 166 154 162 188 160 183 155 96 143 172 148 150 281 304 305 294 289 280 265 257 248 249 248 237 234 234 230 236 257 270 282 287 286 289 290 292 293 294 295 301 300
143 161 157 118 87 78 259 226 201 190 136 118 110 110 98 132 145 163 176 188 231 279 289 295 301 290 274 259 254 257 260 258 260 262 265 273 270 266 262 262 268 279 287 287 286 285 284 291 295
143 155 198 97 118 162 188 198 177 144 149 153 129 142 156 158 162 166 185 198 216 257 285 308 318 319 309 287 276 266 259 261 266 270 271 275 280 281 278 278 281 279 278 279 284 287 289 286 285
165 144 59 82 164 215 201 170 157 142 196 190 168 138 164 174 169 176 178 183 197 173 115 114 67 44 37 359 314 295 290 284 283 283 283 281 282 283 283 283 281 280 280 279 276 275 274 274 278
162 93 59 91 218 230 235 179 165 167 175 172 172 184 184 180 182 179 178 178 172 149 141 56 4 13 7 2 2 356 351 342 329 317 307 301 293 287 285 283 282 281 279 276 275 276 274 270 270
102 80 63 235 233 239 248 178 171 181 174 170 185 156 187 188 186 183 183 180 177 189 201 214 276 318 310 314 319 325 337 341 339 333 327 319 312 307 302 298 289 282 278 276 278 279 274 271 272
127 91 202 200 231 219 214 168 182 178 173 210 187 155 212 188 187 189 187 191 202 210 219 233 253 269 277 294 315 331 335 335 334 331 328 323 317 312 306 300 295 294 293 288 282 276 274 274 270
121 90 124 232 207 253 177 168 189 179 196 190 188 202 221 196 190 191 194 199 207 215 220 227 235 242 258 281 293 312 326 332 339 337 333 326 321 316 310 305 299 294 290 287 286 283 278 273 270
126 70 210 234 159 245 170 158 181 206 181 191 204 215 217 188 194 196 202 205 211 216 222 225 223 224 231 247 266 316 347 357 354 346 343 340 335 328 322 317 312 309 302 295 287 282 280 278 273
101 114 217 195 207 254 191 195 188 187 205 226 230 230 221 199 202 204 205 208 212 217 220 224 228 233 240 260 315 342 351 354 355 355 351 347 344 340 336 329 322 317 313 309 301 295 286 279 279
159 166 208 230 234 256 181 222 192 191 230 230 232 233 219 206 206 206 208 214 218 220 222 227 229 234 243 258 281 317 339 351 353 352 349 348 343 339 337 333 328 325 321 315 311 306 300 295 287
167 191 211 267 212 191 201 196 220 218 242 259 257 252 224 208 207 207 209 213 218 219 222 225 231 239 247 256 279 311 335 343 346 344 345 343 340 338 336 335 333 330 327 324 321 316 313 308 300
165 238 226 259 245 240 245 241 240 253 260 254 253 240 225 214 214 212 215 217 217 218 224 228 232 235 241 249 270 298 323 336 342 343 342 340 339 339 339 336 332 331 330 328 326 323 318 314 309
186 264 272 270 246 247 235 273 251 247 239 244 242 241 227 220 216 211 213 216 220 222 223 225 228 227 233 248 271 298 324 337 340 341 340 338 336 335 334 333 330 328 327 328 327 325 322 318 314
157 316 319 231 226 239 206 286 230 256 256 252 241 236 229 223 218 222 224 224 224 223 223 225 228 231 243 269 293 311 323 333 338 336 331 329 329 331 333 330 326 325 326 326 324 324 322 319 315
82 61 38 211 166 221 158 266 266 252 242 249 245 238 229 225 223 225 225 226 224 223 225 229 231 237 250 259 268 289 311 325 331 331 331 330 330 329 329 327 323 322 322 323 323 323 321 320 319
1 249 223 300 202 143 181 272 239 245 241 254 251 244 233 227 226 227 226 226 226 226 228 230 232 237 243 246 256 275 300 323 331 332 331 328 326 322 327 325 323 321 321 323 323 322 320 318 316
225 245 251 240 221 208 210 256 271 258 260 262 262 254 239 234 235 230 226 225 225 225 226 229 232 236 239 241 250 266 301 325 332 330 325 321 318 323 328 322 321 321 322 322 321 318 317 316 316
163 197 237 246 231 206 232 249 258 272 249 254 256 249 250 246 245 235 230 227 224 224 225 228 231 234 237 239 248 267 296 319 326 328 321 317 323 328 323 319 318 318 317 317 318 317 317 315 315
166 213 259 284 262 198 272 262 259 255 259 256 256 249 258 257 247 240 231 227 226 226 224 225 228 233 235 239 250 269 296 312 323 322 318 321 323 324 317 315 316 317 317 318 318 317 315 313 316
205 195 226 234 338 254 313 268 236 274 249 264 256 259 260 254 249 243 231 226 224 223 223 224 228 230 234 240 255 275 295 307 315 317 320 321 317 317 314 315 316 317 317 317 316 315 313 310 307
236 208 205 289 36 251 0 296 243 245 269 256 266 251 253 250 247 246 238 229 225 224 221 224 226 229 233 242 257 276 294 306 316 318 319 315 318 321 319 318 317 315 312 312 312 312 309 307 305
226 120 138 147 212 26 255 270 233 14 265 263 265 261 255 250 249 249 247 239 231 224 220 221 225 227 233 246 261 277 293 306 313 314 312 316 322 318 317 316 314 312 310 309 309 307 305 302 301
137 98 68 65 105 243 224 202 165 182 212 256 267 260 256 246 255 256 253 243 235 224 219 221 223 228 233 246 264 279 294 301 308 312 316 320 318 318 318 315 312 311 310 309 308 306 303 301 299
94 67 321 312 329 253 140 211 259 229 232 221 237 254 245 264 263 252 243 237 233 224 217 219 222 226 232 243 258 276 290 300 306 313 314 318 316 317 318 314 312 312 311 310 309 306 304 301 296
170 168 168 250 263 290 141 245 274 223 241 240 245 258 263 252 251 249 246 246 237 224 218 220 221 224 232 243 258 275 288 298 306 310 314 316 316 317 316 316 316 316 314 312 309 307 306 302 296
180 187 167 92 121 296 242 263 288 222 258 260 251 248 244 249 252 252 249 247 237 226 218 220 220 225 232 243 259 275 287 298 303 309 314 313 314 315 318 319 317 316 314 313 311 308 305 299 292
183 162 92 357 256 260 270 276 270 216 236 239 246 243 244 249 242 247 249 248 238 229 218 219 222 227 233 245 260 274 287 295 304 311 313 313 316 319 319 319 317 315 314 313 310 307 303 294 289
136 211 224 187 158 205 276 283 183 186 201 217 235 256 237 228 250 245 252 255 239 226 217 218 221 225 233 247 263 278 290 301 308 314 316 317 317 318 318 316 314 315 315 313 309 306 301 294 288
179 193 174 193 238 238 137 271 347 61 214 217 235 215 227 245 251 246 263 251 232 218 217 217 219 224 232 246 264 280 292 301 308 312 314 316 318 318 317 316 315 316 314 313 310 307 301 294 290